E23XBQ-1 Weather Reports


Display with metric or nautical units.
time (UTC)temp
F
wind
direction
speed
MPH
gust
MPH
rain 1hr
in
rain 24hr
in
rain mn
in
humidity
%
barometer
mb
20260502152159 80 0 0.0 0.0 0.00 0.00 0.00 72 970.0
20260502151132 80 0 0.0 0.0 0.00 0.00 0.00 74 970.0
20260502150107 81 0 0.0 0.0 0.00 0.00 0.00 71 970.0
20260502130618 85 0 0.0 0.0 0.00 0.00 0.00 55 968.0
20260502130309 85 0 0.0 0.0 0.00 0.00 0.00 55 968.0
20260502123152 87 0 0.0 0.0 0.00 0.00 0.00 57 968.0
20260502122128 88 0 0.0 0.0 0.00 0.00 0.00 46 967.0
20260502121107 88 0 0.0 0.0 0.00 0.00 0.00 43 967.0
20260502121103 88 0 0.0 0.0 0.00 0.00 0.00 43 967.0
20260502115013 90 0 0.0 0.0 0.00 0.00 0.00 46 967.0
20260502113948 91 0 0.0 0.0 0.00 0.00 0.00 40 966.0
20260502112922 92 0 0.0 0.0 0.00 0.00 0.00 43 966.0
20260502111858 92 0 0.0 0.0 0.00 0.00 0.00 42 966.0
20260502110844 92 0 0.0 0.0 0.00 0.00 0.00 42 966.0
20260502110833 92 0 0.0 0.0 0.00 0.00 0.00 42 966.0
20260502105808 93 0 0.0 0.0 0.00 0.00 0.00 40 966.0
20260502104743 93 0 0.0 0.0 0.00 0.00 0.00 42 966.0
20260502103718 93 0 0.0 0.0 0.00 0.00 0.00 37 966.0
20260502102653 94 0 0.0 0.0 0.00 0.00 0.00 34 966.0
20260502101629 96 0 0.0 0.0 0.00 0.00 0.00 37 966.0
20260502100626 98 0 0.0 0.0 0.00 0.00 0.00 34 966.0
20260502100604 98 0 0.0 0.0 0.00 0.00 0.00 34 966.0
20260502091403 99 0 0.0 0.0 0.00 0.00 0.00 35 966.0
20260502090337 98 0 0.0 0.0 0.00 0.00 0.00 33 966.0
20260502080109 101 0 0.0 0.0 0.00 0.00 0.00 32 967.0
20260502070908 102 0 0.0 0.0 0.00 0.00 0.00 32 968.0
20260502065843 103 0 0.0 0.0 0.00 0.00 0.00 31 968.0
20260502064819 101 0 0.0 0.0 0.00 0.00 0.00 33 969.0
20260502063754 100 0 0.0 0.0 0.00 0.00 0.00 34 969.0
20260502062730 101 0 0.0 0.0 0.00 0.00 0.00 34 969.0
20260502061705 101 0 0.0 0.0 0.00 0.00 0.00 35 969.0
20260502060640 102 0 0.0 0.0 0.00 0.00 0.00 32 970.0
20260502055616 101 0 0.0 0.0 0.00 0.00 0.00 35 970.0
20260502054551 101 0 0.0 0.0 0.00 0.00 0.00 33 970.0
20260502053527 100 0 0.0 0.0 0.00 0.00 0.00 34 970.0
20260502052503 99 0 0.0 0.0 0.00 0.00 0.00 37 971.0
20260502051438 98 0 0.0 0.0 0.00 0.00 0.00 38 971.0
20260502050419 99 0 0.0 0.0 0.00 0.00 0.00 37 971.0
20260502050414 99 0 0.0 0.0 0.00 0.00 0.00 37 971.0
20260502045350 99 0 0.0 0.0 0.00 0.00 0.00 37 971.0
20260502044325 99 0 0.0 0.0 0.00 0.00 0.00 39 971.0
20260502043301 98 0 0.0 0.0 0.00 0.00 0.00 39 972.0
20260502042235 98 0 0.0 0.0 0.00 0.00 0.00 42 972.0
20260502041211 98 0 0.0 0.0 0.00 0.00 0.00 40 972.0
20260502040146 97 0 0.0 0.0 0.00 0.00 0.00 41 972.0
20260502035122 96 0 0.0 0.0 0.00 0.00 0.00 43 972.0
20260502034057 95 0 0.0 0.0 0.00 0.00 0.00 42 972.0
20260502033032 95 0 0.0 0.0 0.00 0.00 0.00 45 972.0
20260502032008 94 0 0.0 0.0 0.00 0.00 0.00 47 972.0
20260502030943 93 0 0.0 0.0 0.00 0.00 0.00 47 973.0
20260502025919 93 0 0.0 0.0 0.00 0.00 0.00 47 973.0
20260502024853 92 0 0.0 0.0 0.00 0.00 0.00 50 973.0
20260502023828 92 0 0.0 0.0 0.00 0.00 0.00 51 973.0
20260502022805 92 0 0.0 0.0 0.00 0.00 0.00 52 973.0
20260502021739 91 0 0.0 0.0 0.00 0.00 0.00 53 973.0
20260502020714 90 0 0.0 0.0 0.00 0.00 0.00 58 973.0
20260502015649 88 0 0.0 0.0 0.00 0.00 0.00 62 973.0
20260502014625 87 0 0.0 0.0 0.00 0.00 0.00 68 973.0
20260502013600 86 0 0.0 0.0 0.00 0.00 0.00 67 973.0
20260502012536 85 0 0.0 0.0 0.00 0.00 0.00 71 973.0
20260502011511 83 0 0.0 0.0 0.00 0.00 0.00 81 973.0
20260502010450 82 0 0.0 0.0 0.00 0.00 0.00 86 973.0
20260502010446 82 0 0.0 0.0 0.00 0.00 0.00 86 973.0
20260502005421 80 0 0.0 0.0 0.00 0.00 0.00 89 972.0
20260502004356 78 0 0.0 0.0 0.00 0.00 0.00 99 972.0
20260502003330 77 0 0.0 0.0 0.00 0.00 0.00 99 972.0
20260502002306 77 0 0.0 0.0 0.00 0.00 0.00 99 972.0
20260502001240 76 0 0.0 0.0 0.00 0.00 0.00 99 972.0
20260502000215 75 0 0.0 0.0 0.00 0.00 0.00 99 972.0
20260501235201 75 0 0.0 0.0 0.00 0.00 0.00 99 972.0
20260501235151 75 0 0.0 0.0 0.00 0.00 0.00 99 972.0
20260501234126 74 0 0.0 0.0 0.00 0.00 0.00 99 971.0
20260501233100 73 0 0.0 0.0 0.00 0.00 0.00 99 971.0
20260501232036 73 0 0.0 0.0 0.00 0.00 0.00 99 971.0
20260501230956 73 0 0.0 0.0 0.00 0.00 0.00 99 971.0
20260501225927 72 0 0.0 0.0 0.00 0.00 0.00 99 971.0
20260501224913 72 0 0.0 0.0 0.00 0.00 0.00 99 971.0
20260501224902 72 0 0.0 0.0 0.00 0.00 0.00 99 971.0
20260501223837 73 0 0.0 0.0 0.00 0.00 0.00 99 971.0
20260501222813 73 0 0.0 0.0 0.00 0.00 0.00 99 971.0
20260501221748 73 0 0.0 0.0 0.00 0.00 0.00 99 971.0
20260501220723 73 0 0.0 0.0 0.00 0.00 0.00 99 970.0
20260501215658 74 0 0.0 0.0 0.00 0.00 0.00 99 970.0
20260501214632 74 0 0.0 0.0 0.00 0.00 0.00 99 970.0
20260501214210 73 0 0.0 0.0 0.00 0.00 0.00 99 970.0
20260501213145 73 0 0.0 0.0 0.00 0.00 0.00 99 970.0
20260501212121 73 0 0.0 0.0 0.00 0.00 0.00 99 970.0
20260501211055 74 0 0.0 0.0 0.00 0.00 0.00 99 970.0
20260501210030 74 0 0.0 0.0 0.00 0.00 0.00 99 970.0
20260501205006 74 0 0.0 0.0 0.00 0.00 0.00 99 970.0
20260501203941 74 0 0.0 0.0 0.00 0.00 0.00 99 970.0
20260501202916 74 0 0.0 0.0 0.00 0.00 0.00 99 970.0
20260501201856 75 0 0.0 0.0 0.00 0.00 0.00 99 970.0
20260501201851 75 0 0.0 0.0 0.00 0.00 0.00 99 970.0
20260501200826 75 0 0.0 0.0 0.00 0.00 0.00 99 970.0
20260501195804 75 0 0.0 0.0 0.00 0.00 0.00 99 970.0
20260501195801 75 0 0.0 0.0 0.00 0.00 0.00 99 970.0
20260501194738 75 0 0.0 0.0 0.00 0.00 0.00 99 970.0
20260501193709 76 0 0.0 0.0 0.00 0.00 0.00 99 970.0
20260501192643 76 0 0.0 0.0 0.00 0.00 0.00 99 970.0
20260501191616 76 0 0.0 0.0 0.00 0.00 0.00 99 970.0
20260501190548 76 0 0.0 0.0 0.00 0.00 0.00 99 971.0
20260501185522 77 0 0.0 0.0 0.00 0.00 0.00 99 971.0
20260501184457 77 0 0.0 0.0 0.00 0.00 0.00 99 971.0
20260501183432 77 0 0.0 0.0 0.00 0.00 0.00 99 971.0
20260501182408 77 0 0.0 0.0 0.00 0.00 0.00 99 971.0
20260501181342 77 0 0.0 0.0 0.00 0.00 0.00 99 971.0
20260501180319 77 0 0.0 0.0 0.00 0.00 0.00 99 9.7
20260501180316 77 0 0.0 0.0 0.00 0.00 0.00 99 971.0
20260501175729 77 0 0.0 0.0 0.00 0.00 0.00 99 971.0
20260501174704 77 0 0.0 0.0 0.00 0.00 0.00 99 971.0
20260501173639 77 0 0.0 0.0 0.00 0.00 0.00 99 971.0
20260501172615 78 0 0.0 0.0 0.00 0.00 0.00 99 971.0
20260501171550 78 0 0.0 0.0 0.00 0.00 0.00 99 971.0
20260501170524 77 0 0.0 0.0 0.00 0.00 0.00 99 971.0
20260501165459 78 0 0.0 0.0 0.00 0.00 0.00 99 971.0
20260501164434 78 0 0.0 0.0 0.00 0.00 0.00 99 971.0
20260501163409 78 0 0.0 0.0 0.00 0.00 0.00 99 971.0
20260501162344 79 0 0.0 0.0 0.00 0.00 0.00 99 971.0
20260501161320 79 0 0.0 0.0 0.00 0.00 0.00 99 971.0
20260501160253 79 0 0.0 0.0 0.00 0.00 0.00 99 971.0